Regional Weather Roundup
Issued by NWS

Home | Current Version | Previous Version | Text Only | Print | Product List | Glossary On
Versions: 1 2 3 4 5 6 7 8 9 10 11 12 13 14 15 16 17 18 19 20 21 22 23 24 25 26 27 28 29 30 31 32 33 34 35 36 37 38 39 40 41 42 43 44 45 46 47 48 49 50
000
ASUS43 KBIS 311502
RWRND

NORTH DAKOTA REGIONAL WEATHER ROUNDUP
NATIONAL WEATHER SERVICE BISMARCK ND
1000 AM CDT WED AUG 31 2016

NOTE: "FAIR" INDICATES FEW OR NO CLOUDS BELOW 12,000 FEET WITH NO
SIGNIFICANT WEATHER AND/OR OBSTRUCTIONS TO VISIBILITY.


NDZ001>003-009>011-017-311600-
NORTHWEST NORTH DAKOTA

CITY           SKY/WX    TMP DP  RH WIND       PRES   REMARKS
WILLISTON      SUNNY     72  57  59 SE10      30.10F
MINOT          CLOUDY    66  55  67 E16G22    30.18F
MINOT AFB      MOSUNNY   65  52  63 E21G26    30.15F THUNDER
$$

NDZ018>021-031>035-040>046-311600-
SOUTHWEST NORTH DAKOTA

CITY           SKY/WX    TMP DP  RH WIND       PRES   REMARKS
BISMARCK       CLOUDY    66  58  75 SE10      30.21R
DICKINSON      MOSUNNY   65  60  84 SE17      30.15R
GARRISON         N/A     69  61  75 SE13G18   30.19R
HETTINGER ARPT SUNNY     68  60  75 SE12      30.19R
$$

NDZ004>008-012>016-024-026-027-054-311600-
NORTHEAST NORTH DAKOTA

CITY           SKY/WX    TMP DP  RH WIND       PRES   REMARKS
GRAND FORKS    MOSUNNY   64  52  64 NE7       30.27F
GRND FRKS AFB  MOSUNNY   60  53  77 NE6       30.28S
DEVILS LAKE    SUNNY     66  49  54 E8        30.28S
$$

NDZ022-023-025-028>030-036>039-047>053-311600-
SOUTHEAST NORTH DAKOTA

CITY           SKY/WX    TMP DP  RH WIND       PRES   REMARKS
FARGO          SUNNY     68  57  68 NE3       30.25F
JAMESTOWN      PTSUNNY   68  56  65 SE7       30.26R
$$





USA.gov is the U.S. government's official web portal to all federal, state and local government web resources and services.